RH
84 82 82 82 82 82 83 84 87 90 93 93 93 93 92 92 91 90 90 92 93 94 94 93 92 91 92 93 94 95 96 98 99 100 100 100 100 100 100 99 99 99 98 98 97 97 96 96 95 94 92 92 91 91 91 91 92 92 91 91 90 92 98 98 99 100 100 100 99 99 99 98 97 97 97 96 95 93 91 90 90 90 92 92 91 91
86 85 85 85 86 87 87 88 89 91 94 93 93 92 92 92 93 93 93 94 95 95 95 95 94 93 93 95 97 99 99 100 100 100 100 100 100 100 100 99 99 98 98 97 97 97 96 95 94 93 91 90 90 89 89 90 91 92 92 92 93 95 99 99 100 100 100 100 100 100 99 99 97 96 96 97 96 95 93 92 91 92 93 93 92 92
88 87 86 87 89 90 90 90 90 91 93 93 92 92 92 94 96 97 98 97 97 96 96 95 95 94 94 96 98 99 100 100 100 100 100 100 100 100 100 99 99 98 98 97 97 97 96 95 93 92 90 89 89 89 90 92 95 97 97 96 97 99 100 100 100 100 100 100 99 99 99 99 98 97 97 98 98 97 95 93 93 93 94 93 93 92
90 89 88 89 90 91 91 91 91 92 93 94 94 95 95 98 99 99 99 98 98 97 96 95 94 95 95 96 98 99 100 100 100 100 100 100 100 100 100 99 99 98 98 98 97 97 96 95 93 91 90 89 90 91 93 97 99 100 99 99 100 100 100 100 100 100 99 99 99 99 98 98 98 97 97 97 97 96 94 93 93 93 94 93 92 91
92 91 90 91 91 91 92 92 93 95 96 97 98 99 99 100 100 99 98 98 98 97 96 95 94 95 96 97 99 99 100 100 100 100 100 100 100 100 100 100 99 99 98 98 98 97 96 95 92 90 89 90 92 94 97 99 100 100 100 100 100 100 100 100 100 99 99 99 98 98 97 96 96 96 96 96 95 94 93 92 93 93 94 93 92 90
94 94 93 93 93 92 93 95 97 98 99 99 100 100 100 100 99 99 98 98 98 97 96 95 95 95 96 98 99 100 100 100 100 100 100 100 100 100 100 100 99 99 99 98 98 97 97 95 93 91 90 93 95 97 99 99 100 100 100 100 100 100 100 100 99 99 99 98 98 97 96 95 94 93 93 92 92 91 90 90 91 91 92 91 90 89
95 96 96 96 96 96 97 98 99 100 100 100 100 100 100 100 100 99 99 98 97 96 95 95 96 96 98 99 100 100 100 100 100 100 100 100 100 100 100 100 99 99 99 98 98 97 97 96 94 92 93 96 98 99 100 100 100 100 100 100 100 100 100 99 99 99 98 98 97 96 94 93 91 90 90 89 88 88 87 87 88 88 88 87 86 85
96 98 98 99 99 99 100 100 100 100 100 100 100 100 100 100 100 100 99 99 98 97 96 97 97 98 99 100 100 100 100 100 100 100 100 100 100 100 100 100 99 99 99 98 98 97 96 95 94 93 94 97 99 100 100 100 100 100 100 100 100 99 99 99 99 98 98 97 96 95 93 91 90 89 88 87 86 86 85 85 85 85 85 84 84 82
98 99 100 100 100 100 100 100 100 100 100 100 100 100 100 100 100 100 100 99 99 99 99 99 99 99 100 100 100 100 100 100 100 100 100 100 100 100 100 100 99 99 99 98 98 97 96 95 94 93 94 97 99 100 100 100 100 100 99 99 99 99 99 99 98 98 98 97 96 95 93 92 91 90 89 89 89 88 88 87 87 87 86 86 84 83
99 100 100 100 99 99 99 100 100 100 100 100 100 100 100 100 100 100 100 100 100 100 100 100 100 100 100 100 100 100 100 100 100 100 99 99 99 99 99 99 99 99 99 98 98 98 97 96 94 94 95 98 99 100 100 99 99 99 99 99 99 99 98 98 98 98 98 97 97 96 95 94 94 93 93 93 93 93 92 91 90 89 87 86 84 82
100 100 100 100 100 100 100 100 100 100 100 100 100 100 100 100 100 100 100 100 100 100 100 100 100 100 100 100 100 100 100 100 100 100 100 100 99 99 99 99 99 99 99 99 99 98 98 97 96 95 96 98 99 100 99 99 99 99 99 99 98 98 98 98 98 98 98 98 97 97 97 96 96 95 94 93 91 89 86 84 82 79 77 76 75 75
100 100 100 100 100 100 100 100 100 100 100 100 100 100 100 100 100 100 100 100 100 100 100 100 100 100 100 100 100 100 100 100 100 100 100 100 100 100 100 99 99 99 99 99 100 99 99 98 97 97 97 99 99 99 99 99 99 99 99 98 98 98 98 98 98 98 98 97 96 95 94 91 89 86 83 79 74 70 66 62 59 57 55 56 59 63
100 99 99 100 100 100 100 100 100 100 100 100 100 99 99 100 100 100 100 99 99 100 100 100 100 100 100 100 100 100 100 100 100 100 100 100 100 100 100 99 99 99 99 100 100 100 100 99 98 98 98 99 99 99 98 98 99 99 99 98 98 98 98 98 97 96 94 91 87 83 79 74 69 64 59 54 49 45 42 39 37 35 33 37 45 55
99 100 100 100 100 100 100 100 100 99 100 99 99 99 99 100 100 100 100 100 100 100 100 100 100 100 100 100 100 100 100 100 100 100 100 100 100 100 99 99 98 99 99 100 100 100 100 99 98 98 98 99 99 98 98 98 98 98 98 98 97 96 94 91 87 82 77 72 66 61 55 50 45 41 37 34 32 31 31 29 27 26 26 31 42 53
98 99 99 99 99 99 99 100 99 99 99 99 99 99 100 100 100 100 100 100 100 100 100 100 100 100 100 100 100 100 100 100 100 100 100 100 100 100 99 99 99 99 100 100 100 100 99 98 97 97 98 98 98 98 97 98 98 97 96 94 90 86 80 73 67 60 54 50 45 41 38 35 33 31 29 29 31 34 36 36 34 32 33 38 48 58
98 98 98 97 97 97 98 99 99 99 99 99 99 99 100 100 100 100 100 100 100 100 100 100 100 100 100 100 100 100 100 100 100 100 100 100 100 100 99 99 99 99 100 100 100 99 99 98 97 96 96 96 96 96 96 96 95 93 90 85 78 70 62 55 49 44 42 39 38 37 38 38 37 35 34 37 42 47 51 51 49 48 47 52 58 64
98 98 97 97 96 96 97 98 99 99 99 99 99 100 100 100 100 100 100 100 100 100 100 99 99 98 98 99 100 100 100 100 100 100 100 100 100 100 100 99 99 99 100 100 100 99 99 98 97 96 95 95 95 94 94 93 91 88 83 76 68 60 53 47 43 41 40 39 42 48 53 52 50 46 43 48 55 61 63 64 63 63 63 64 65 68
99 98 97 96 96 96 97 98 98 98 99 99 99 100 100 100 100 100 100 100 100 99 99 99 97 95 94 96 98 100 100 100 100 100 100 100 100 100 100 99 99 99 99 100 100 99 98 98 97 96 95 94 94 93 92 91 87 82 75 68 62 56 51 48 47 45 43 44 51 60 67 66 63 58 52 58 64 70 72 74 74 75 74 71 70 71
99 99 99 97 95 95 96 97 98 99 99 100 100 100 100 100 100 100 100 100 99 99 98 97 96 94 92 90 93 97 99 99 100 100 100 100 100 100 100 100 99 100 99 100 100 100 99 98 98 96 95 95 94 93 91 87 81 75 69 65 61 58 56 54 52 50 46 50 60 70 76 76 73 68 62 66 71 76 78 80 82 82 80 77 74 74
97 98 97 96 96 96 97 97 97 97 98 99 99 99 100 100 100 100 100 100 99 99 99 98 97 95 93 91 92 95 98 99 100 100 100 100 100 100 100 100 99 99 99 99 99 99 99 99 99 98 97 96 95 93 89 82 75 70 67 66 66 65 63 60 56 52 48 63 73 78 81 82 79 75 69 71 75 79 81 84 86 87 85 83 80 77
98 98 97 97 97 97 97 97 96 96 95 97 99 100 100 100 100 100 100 100 100 100 99 99 98 96 95 92 91 93 96 99 99 100 99 99 100 100 100 100 100 100 100 99 99 99 99 99 99 99 98 97 95 92 88 80 74 69 69 70 71 70 68 65 60 56 56 67 76 82 86 85 83 80 75 75 78 82 86 88 90 90 90 89 85 81
99 98 98 98 98 98 97 97 96 95 95 96 98 100 100 100 100 100 100 100 100 100 99 98 97 97 96 94 92 93 95 97 99 99 99 99 99 100 100 100 99 99 99 99 99 99 99 99 99 99 98 96 94 91 88 81 75 71 71 73 73 73 72 68 63 59 63 70 79 87 89 88 86 83 80 80 82 86 89 92 93 93 92 91 88 83
100 99 98 98 98 98 98 98 97 97 97 97 98 98 99 99 99 99 99 99 99 99 99 99 98 98 98 97 96 95 95 96 97 98 99 98 98 99 100 100 100 99 99 99 99 99 99 99 99 98 97 94 92 90 88 82 76 73 71 72 73 73 73 70 65 62 66 75 84 90 92 91 90 88 86 86 87 89 92 94 95 94 94 92 89 84
99 99 99 99 98 98 98 98 99 99 98 98 97 97 97 98 98 98 99 99 99 99 99 99 99 99 99 99 99 98 98 98 98 99 99 97 96 97 99 100 100 99 99 99 99 99 99 98 97 96 94 92 90 88 86 81 75 72 70 71 72 72 72 70 66 65 70 78 86 92 93 93 92 91 91 91 91 92 95 95 95 95 95 93 90 86
99 99 99 99 98 98 98 99 99 99 99 99 98 98 98 99 99 99 100 100 100 100 100 100 100 100 100 100 100 100 99 99 99 99 99 97 96 97 99 99 99 99 99 99 99 98 97 95 94 92 91 89 88 86 83 78 73 70 69 70 70 71 71 69 67 67 74 83 89 92 93 93 92 92 92 93 94 94 95 96 96 96 96 95 92 89
99 99 98 98 98 98 99 99 100 100 100 99 99 99 99 100 100 100 100 100 100 100 100 99 99 99 100 100 100 100 100 100 100 99 99 98 98 99 99 99 99 98 98 98 97 96 95 92 91 89 87 86 85 83 79 74 71 69 70 70 70 70 70 69 69 72 79 86 91 93 94 93 93 93 93 95 96 96 96 97 98 98 98 97 95 92
99 99 99 98 98 99 99 100 100 100 100 100 100 99 100 100 100 100 100 100 100 100 100 98 98 98 99 99 100 100 100 100 100 100 99 99 99 99 99 99 99 99 98 96 95 94 92 91 89 87 84 83 81 78 75 72 71 71 72 71 70 70 71 70 72 76 84 89 92 93 94 94 94 93 94 96 97 98 98 98 98 98 98 97 96 94
100 100 100 100 100 100 100 100 100 100 100 100 100 100 100 100 100 100 100 100 100 100 99 97 96 96 97 98 99 100 100 100 100 100 99 99 98 98 99 99 99 99 98 96 94 92 91 90 89 87 84 81 78 75 72 71 72 73 73 72 71 71 72 73 75 80 86 90 92 93 94 94 94 94 94 97 98 98 98 98 98 97 97 97 95 93
100 100 100 100 100 100 100 100 100 100 100 100 100 100 100 100 99 99 99 99 100 100 99 97 95 94 95 97 99 99 100 100 100 100 100 99 98 98 98 99 99 99 98 96 94 93 91 90 89 87 83 79 76 73 72 72 74 75 75 73 73 73 75 78 81 84 88 89 91 93 94 94 94 94 94 96 97 98 98 98 98 98 97 97 94 90
100 100 100 100 100 100 100 100 100 100 100 100 100 100 100 100 99 99 99 99 99 99 98 97 96 95 96 97 98 99 99 99 100 100 100 99 99 98 98 98 99 99 97 95 92 90 89 88 87 85 82 78 75 73 71 73 74 75 75 75 75 77 79 83 86 88 89 87 89 92 94 94 95 95 95 95 97 98 99 98 98 98 97 97 95 90
99 99 99 99 99 99 100 100 100 100 100 100 100 100 100 100 100 99 100 99 99 99 98 97 97 97 97 96 95 95 95 99 99 99 100 99 99 98 97 97 98 98 97 93 90 86 82 82 82 81 79 75 73 72 71 70 71 72 71 72 74 78 81 84 86 88 89 86 88 92 95 95 95 96 97 97 97 97 98 98 98 98 97 97 96 93
99 99 99 99 99 99 100 100 100 100 100 100 100 100 100 100 100 100 100 99 99 98 98 98 98 98 97 94 92 91 91 96 98 99 99 99 98 97 95 96 97 97 96 92 89 85 80 76 75 76 74 72 71 70 69 65 65 67 66 66 69 74 77 81 84 87 89 87 90 95 97 97 97 97 97 97 98 98 97 98 98 98 97 97 96 95
99 99 99 99 99 99 99 100 100 100 100 100 100 100 100 100 100 100 100 99 99 98 98 98 98 99 98 95 92 90 90 92 94 97 99 99 98 96 94 94 95 95 94 91 87 82 74 71 71 73 72 69 68 67 65 61 59 60 61 60 62 66 69 73 78 83 88 91 94 97 98 98 97 97 96 95 96 97 98 98 98 98 97 97 96 95
99 99 99 99 99 99 99 99 100 100 100 100 100 100 100 100 100 100 100 99 99 98 98 98 98 98 98 96 94 92 90 90 91 94 98 98 97 95 93 93 93 93 92 89 85 78 67 66 68 71 72 70 67 65 61 57 54 54 56 56 56 57 58 61 69 79 86 94 97 98 99 98 97 96 93 91 89 89 91 95 97 98 98 97 96 94
99 99 99 99 99 99 99 99 99 100 100 100 100 100 100 100 100 100 100 100 99 99 98 98 97 97 97 96 95 93 91 89 89 91 96 98 97 95 93 92 92 92 90 88 83 76 68 65 64 66 71 73 71 66 59 55 51 50 51 51 49 48 47 51 63 77 88 95 98 99 98 97 96 94 90 85 80 75 74 80 87 93 98 98 96 93
100 100 99 99 99 99 99 99 99 99 100 100 100 100 100 100 100 100 100 100 99 99 99 99 98 97 95 94 93 92 90 88 87 89 93 96 96 95 93 92 92 91 90 87 82 77 72 70 68 66 69 75 76 72 64 58 54 51 50 49 47 44 42 49 63 78 90 96 98 98 98 96 94 91 87 82 76 70 65 65 68 77 90 95 96 94
100 99 100 100 100 100 100 99 99 99 100 100 99 99 99 100 100 100 100 100 99 99 99 99 99 99 98 96 94 91 89 88 87 88 90 93 94 95 93 92 91 90 88 86 82 77 73 74 75 74 73 74 75 74 69 65 60 56 52 49 48 47 48 56 70 84 93 96 98 98 97 95 91 87 83 81 78 75 71 68 66 67 76 87 93 96
99 99 99 100 100 100 100 100 99 99 100 100 99 99 99 100 100 100 99 99 99 99 99 99 100 99 99 99 97 96 93 91 89 89 90 91 93 95 94 91 90 88 87 84 80 76 73 75 77 79 78 74 73 71 68 68 67 64 58 56 56 58 61 69 81 91 96 97 98 97 97 94 90 87 84 82 80 78 75 74 72 70 68 78 86 92
99 99 99 99 99 99 99 100 100 100 100 100 100 100 100 100 100 100 99 99 100 100 100 100 100 100 100 100 99 99 97 94 92 90 90 90 92 94 94 91 89 87 85 82 79 76 73 73 73 74 76 73 72 71 70 70 69 68 66 72 77 80 80 84 90 95 97 98 98 98 97 95 92 89 86 83 79 76 74 72 72 70 66 68 73 81
98 97 98 98 99 99 99 99 99 100 100 100 100 100 100 100 100 100 100 100 100 100 100 100 100 100 100 100 99 98 97 94 91 90 88 88 90 92 94 91 88 85 82 80 77 75 73 71 69 68 68 66 67 71 75 72 71 71 74 84 91 94 93 95 96 97 98 98 98 97 97 96 94 91 87 82 77 73 69 68 67 67 66 64 63 65
96 96 96 97 98 99 100 99 99 100 100 100 100 100 100 100 100 100 100 100 100 100 100 100 100 99 99 99 98 96 93 90 88 87 85 85 87 90 92 90 88 85 81 78 75 73 71 69 66 64 63 60 62 67 73 72 71 71 76 83 88 92 95 97 98 98 98 98 97 97 96 95 92 88 83 77 73 69 67 66 65 64 64 62 58 54
95 95 95 97 98 99 99 99 99 99 100 100 99 99 99 99 99 99 99 99 99 99 99 99 98 97 95 93 91 90 87 86 84 83 81 81 83 87 91 90 88 84 81 76 73 70 68 65 63 60 59 58 61 66 73 74 72 71 74 78 82 88 95 96 97 97 97 97 96 96 94 91 87 82 77 75 72 69 67 66 65 63 61 58 55 50
94 94 94 97 99 99 99 99 99 99 99 99 99 99 99 99 99 98 98 98 97 97 97 97 96 94 91 88 85 82 81 80 80 79 77 76 79 83 88 88 87 84 81 76 72 68 64 62 59 56 54 54 57 63 71 76 76 74 74 74 78 82 88 92 95 96 95 95 93 92 89 85 82 79 77 77 75 73 70 67 63 60 57 53 49 45
95 95 95 98 99 99 99 99 99 99 99 99 98 98 98 98 98 98 98 97 96 95 95 94 94 92 90 88 85 82 79 78 77 76 73 73 75 79 83 85 84 82 80 77 72 67 63 61 57 54 51 51 53 57 63 71 74 75 73 72 72 74 76 77 83 89 92 91 90 87 85 83 81 80 80 80 78 75 71 66 61 56 51 47 44 41
96 97 98 99 99 99 99 99 99 98 98 98 98 98 98 98 98 98 98 97 96 95 93 93 92 91 91 89 87 84 81 79 77 74 72 70 71 74 78 81 81 80 77 75 72 68 63 60 57 55 52 52 52 54 58 65 71 73 72 70 68 65 58 56 65 75 81 84 84 83 83 82 82 81 80 77 73 70 66 62 58 54 49 44 40 38
99 99 99 99 99 98 98 98 98 98 98 97 97 97 98 98 98 97 97 96 95 94 93 92 91 91 91 90 88 85 83 80 77 74 72 71 70 71 73 75 75 74 71 69 67 65 61 57 54 53 53 55 55 54 52 57 64 69 71 70 68 65 59 54 56 61 66 71 74 76 77 80 80 78 75 71 67 63 59 57 54 51 48 44 41 39
99 99 99 98 98 98 98 98 97 97 97 97 97 97 97 97 97 97 97 96 95 94 93 91 90 90 90 90 88 86 84 81 78 75 72 70 69 69 71 70 69 67 65 63 61 59 57 53 50 49 52 57 60 60 56 53 55 60 66 67 68 67 64 57 53 52 54 57 61 65 69 73 74 72 68 65 62 59 55 53 51 49 48 47 46 45
99 99 98 98 98 97 97 97 97 97 97 97 97 97 97 97 97 97 96 96 95 93 92 90 89 88 88 88 86 84 82 81 79 77 73 70 68 67 67 66 65 63 62 60 59 57 56 54 51 50 50 54 58 61 62 57 55 54 55 60 64 66 63 57 53 51 51 52 54 57 62 65 66 65 62 60 59 56 52 50 49 49 50 50 50 50
99 99 98 98 97 97 97 97 97 97 97 96 96 96 96 96 96 96 96 95 94 93 91 88 86 85 86 86 84 82 81 81 80 78 75 71 69 67 66 65 64 63 62 61 60 58 57 56 55 54 53 53 53 56 58 58 57 54 52 54 57 60 60 57 55 54 54 55 56 59 61 61 60 58 57 58 57 55 51 50 50 51 52 53 54 54
99 98 98 98 98 97 97 97 97 97 97 96 96 96 96 96 96 96 95 94 93 91 89 85 83 82 83 83 83 82 81 82 82 81 79 74 71 68 67 66 66 65 65 65 64 62 61 60 60 59 57 56 54 53 54 56 58 58 57 56 56 57 57 56 56 56 57 58 60 63 65 64 62 61 60 60 59 57 55 52 51 52 54 55 55 55
98 98 98 98 98 97 97 97 97 97 97 96 96 96 96 96 96 95 95 94 92 90 87 83 81 80 80 80 80 80 80 81 82 82 82 78 74 70 68 67 67 66 66 67 67 66 65 63 62 61 60 59 57 55 53 54 58 61 63 61 60 58 58 57 57 59 61 62 64 65 67 67 65 64 63 63 63 63 62 56 52 50 52 55 57 57
Wind_Speed
19 19 20 20 19 19 19 18 18 17 17 17 16 16 16 16 16 17 17 16 16 16 17 19 21 22 22 22 22 22 23 24 26 27 28 29 28 27 26 23 21 20 19 18 18 16 14 13 12 12 13 14 14 15 15 14 14 13 12 11 11 10 10 10 10 11 13 13 14 14 14 14 15 14 14 13 13 13 13 12 12 11 11 10 9 8
17 18 19 19 19 18 18 18 18 17 17 17 17 18 18 18 18 18 18 17 16 16 17 19 20 22 22 22 21 21 22 24 27 28 30 30 29 27 25 23 21 20 19 19 18 16 14 13 12 12 13 13 14 14 14 14 13 13 12 12 11 11 11 12 12 13 14 14 14 14 15 15 15 15 14 13 12 12 12 11 11 11 11 10 9 8
16 17 18 18 18 17 17 17 18 18 18 18 19 19 19 19 19 18 18 17 16 15 15 17 19 21 22 22 21 20 21 23 26 28 29 29 28 27 25 23 22 21 21 20 18 16 14 12 12 12 12 13 13 13 13 13 13 13 13 12 12 12 13 14 15 15 16 16 16 15 15 15 15 15 14 12 11 11 11 11 11 11 11 11 10 9
16 17 17 17 17 17 17 17 18 18 19 19 20 20 20 19 18 18 18 17 16 15 15 15 17 19 21 22 21 21 21 23 24 26 26 26 26 26 25 24 23 23 22 20 18 15 13 12 11 11 12 12 12 13 13 14 14 14 15 15 15 15 17 18 18 18 18 17 17 16 16 16 15 14 14 13 12 11 11 11 11 11 11 11 10 10
15 16 17 16 17 17 18 18 18 19 19 20 20 20 20 19 18 18 17 16 15 15 14 15 16 18 21 22 22 22 22 23 24 24 24 23 23 23 23 23 23 22 21 19 16 14 12 11 11 11 11 11 12 13 14 15 16 16 16 16 17 18 19 20 20 20 19 18 17 17 16 16 15 14 14 13 12 12 11 11 11 12 11 11 11 10
15 15 16 16 17 18 18 18 18 18 19 19 19 19 19 18 18 17 17 16 16 15 15 15 16 18 20 22 22 23 23 23 24 24 24 23 22 22 22 21 21 20 19 17 14 12 11 10 10 10 10 11 13 15 16 17 17 18 18 18 18 19 19 20 20 19 19 18 17 17 16 16 16 15 14 14 13 12 12 12 12 11 11 11 11 11
15 15 16 16 17 18 18 18 18 18 18 18 18 18 18 18 17 17 17 17 16 16 16 16 17 18 20 21 22 23 23 24 24 25 24 23 22 22 21 21 20 18 17 15 13 11 11 10 10 10 11 13 15 16 17 18 18 18 18 19 19 19 19 19 19 18 18 18 17 17 17 16 16 15 14 14 13 13 13 12 12 11 11 11 11 11
15 16 16 16 16 17 17 17 17 17 18 18 18 18 18 18 18 18 18 18 17 17 17 17 18 19 20 21 22 23 24 24 25 25 24 24 23 22 21 20 19 17 15 13 12 11 11 11 11 11 13 15 17 17 18 18 18 18 19 19 19 19 18 18 18 18 17 17 17 16 16 16 15 14 14 13 13 13 13 13 12 12 11 11 11 11
17 16 17 17 16 16 16 18 19 19 18 18 18 18 19 19 20 20 20 20 19 19 19 19 19 19 20 21 22 23 25 25 26 25 25 24 23 22 21 20 18 16 14 13 12 12 12 12 12 12 14 16 17 18 18 18 18 18 18 18 18 18 18 17 17 17 17 16 16 16 15 15 14 14 14 13 13 13 14 14 14 13 13 12 12 11
19 18 18 18 18 17 16 17 19 21 20 20 20 20 20 19 19 20 20 21 21 21 20 20 19 20 20 21 22 24 25 26 26 26 25 25 24 23 22 20 18 15 14 13 12 12 13 12 12 13 15 17 18 18 18 18 18 18 18 18 18 18 17 17 16 16 16 16 16 15 15 15 15 15 15 15 15 15 15 15 15 15 15 15 14 12
18 18 17 17 18 18 18 17 19 20 21 21 21 22 22 21 19 18 17 19 21 21 21 20 20 19 20 21 23 24 26 26 26 25 25 24 24 22 21 19 17 15 13 13 13 13 13 13 13 14 16 17 18 18 18 18 18 18 18 18 17 17 17 17 16 16 16 16 15 15 15 16 16 16 17 17 17 17 17 17 17 17 17 16 15 13
17 17 16 16 16 17 18 19 20 20 20 20 18 18 20 22 22 19 17 17 19 20 20 20 20 20 21 21 23 24 26 26 26 25 24 23 22 21 20 18 16 14 13 13 14 14 14 14 15 15 17 18 19 19 19 19 18 18 18 18 17 17 17 17 16 16 16 16 16 16 17 17 17 18 18 18 18 18 18 18 17 17 17 16 15 14
17 16 15 16 16 16 18 18 18 17 18 18 16 16 17 21 22 22 19 19 18 19 19 20 20 21 22 22 23 24 25 26 26 26 25 23 22 21 20 18 16 15 14 15 16 16 16 16 17 17 18 19 19 19 19 19 18 18 18 17 17 17 17 17 16 16 16 17 17 17 17 17 17 17 17 17 17 17 16 16 16 16 15 15 14 13
16 15 14 15 15 16 17 17 16 15 16 18 19 19 19 20 21 21 20 18 18 18 18 19 21 22 22 23 23 24 24 26 26 25 24 23 23 22 20 19 17 17 17 18 18 19 19 19 19 19 20 20 20 20 19 19 18 17 17 16 16 16 16 16 16 16 16 16 16 16 16 16 16 15 15 15 14 14 14 13 13 13 13 12 12 11
15 14 13 13 14 15 16 16 17 17 19 20 21 21 20 19 19 19 18 17 16 16 16 18 20 21 22 23 23 23 24 25 25 25 24 23 23 22 21 19 19 18 19 20 21 21 22 21 21 21 21 21 21 20 19 18 17 16 16 15 15 15 15 15 15 15 14 14 14 14 14 13 13 13 13 12 12 11 11 11 10 10 10 11 11 11
16 14 13 13 14 16 17 17 17 18 20 20 21 20 19 18 18 18 18 17 16 15 14 15 15 16 19 22 23 24 24 24 25 24 23 23 23 22 21 20 20 20 21 22 23 23 23 23 22 22 22 22 21 20 19 18 17 15 15 14 14 14 14 14 13 13 12 12 12 11 11 11 11 11 11 10 10 9 9 9 8 8 9 10 11 11
16 15 15 15 15 16 17 18 19 20 20 20 20 21 20 19 19 18 18 17 16 15 14 13 10 7 10 17 22 24 25 25 25 24 23 23 23 23 22 21 22 23 23 24 24 24 24 24 24 23 22 22 21 20 19 17 16 15 14 14 13 13 13 13 12 11 11 10 10 10 10 10 10 9 9 9 9 9 8 8 7 8 8 10 11 11
16 16 16 16 16 16 16 18 20 21 21 20 21 21 21 21 20 19 19 18 16 15 15 14 12 8 7 11 18 25 27 27 25 23 22 23 24 24 23 23 23 23 24 25 25 25 25 25 24 24 23 22 20 19 17 16 15 14 13 13 13 13 12 12 11 10 9 9 9 9 9 9 9 9 9 9 9 8 8 8 7 7 8 10 11 11
17 17 17 18 17 17 17 18 19 20 20 20 20 20 20 20 20 19 19 19 19 17 16 15 14 14 13 13 18 26 28 29 26 23 20 21 23 25 24 24 24 24 25 25 26 26 25 25 24 23 22 21 19 18 16 15 13 13 13 13 12 12 11 10 10 9 8 8 9 9 10 10 9 9 8 9 9 8 8 8 8 8 8 9 10 11
19 19 20 20 18 17 17 19 20 21 21 21 21 20 20 20 19 19 19 19 19 19 18 17 16 16 16 15 18 24 28 29 27 22 19 19 21 24 25 25 25 25 25 26 26 26 26 26 24 23 22 20 18 16 15 14 13 13 13 12 12 11 11 10 9 9 8 9 9 10 10 10 10 9 9 9 9 9 9 8 8 8 8 9 10 11
21 21 22 20 19 17 17 19 22 23 23 23 22 21 21 20 19 19 19 19 19 19 19 17 17 17 17 16 17 21 26 29 27 22 19 18 19 22 25 25 25 25 26 27 27 27 26 26 25 23 21 19 17 16 15 14 13 13 13 12 12 11 11 10 10 9 8 9 10 11 11 10 10 9 9 9 9 9 9 8 8 8 8 9 10 10
23 23 23 22 21 20 19 20 22 23 24 25 24 23 22 20 19 19 21 21 20 20 19 19 19 19 18 17 18 20 24 29 28 24 18 15 16 20 25 26 25 25 26 27 27 26 26 25 24 22 20 19 17 16 15 15 14 14 13 13 12 12 11 11 10 9 9 10 11 11 11 11 10 9 9 9 9 9 9 8 8 8 8 9 9 10
28 26 25 24 24 24 23 22 22 23 24 25 26 25 24 23 22 22 23 23 22 21 21 21 21 20 19 18 18 19 21 26 28 26 20 14 14 19 24 26 26 25 25 26 27 26 25 24 23 21 19 18 17 17 16 16 16 15 14 13 13 12 12 12 11 10 10 11 12 12 11 11 10 10 9 9 9 9 9 9 9 8 8 8 9 10
32 31 29 28 27 27 26 25 24 24 24 25 26 27 26 26 25 24 24 24 23 23 22 22 20 18 17 17 17 18 20 24 27 26 21 16 16 19 24 26 26 24 24 25 26 25 24 23 22 20 19 18 17 17 17 17 17 16 15 14 14 13 13 12 11 11 11 12 12 12 12 11 10 10 10 10 10 10 10 9 9 9 8 9 9 9
33 32 31 30 30 29 28 27 26 25 25 25 26 26 26 26 24 23 22 21 22 22 20 18 15 14 15 16 17 18 21 24 28 27 21 17 16 18 23 26 26 24 22 23 24 24 23 22 21 20 19 18 18 18 18 18 17 17 16 15 14 14 13 13 12 12 12 12 13 12 12 11 11 10 10 10 10 10 10 10 10 9 9 9 9 9
35 34 34 33 32 31 29 28 27 26 26 25 25 25 26 25 23 21 20 19 20 20 18 14 12 13 14 15 16 19 22 25 28 29 25 18 15 17 22 27 27 24 21 22 23 23 22 22 21 21 20 19 19 19 19 18 18 17 16 15 14 14 14 13 13 13 13 13 13 13 12 12 11 11 11 11 11 11 11 11 10 10 10 10 9 10
36 35 35 34 33 32 30 29 27 26 26 26 25 25 25 24 22 20 19 20 21 20 17 13 11 10 12 13 15 18 22 26 30 31 29 22 16 16 21 26 28 25 22 21 22 22 22 22 22 21 21 21 20 20 20 19 18 17 16 15 14 14 14 14 13 13 14 14 14 13 13 12 12 11 11 11 11 11 11 11 11 11 10 10 11 11
36 36 35 34 33 32 31 29 28 27 26 25 25 25 25 24 22 20 19 21 22 21 18 15 11 8 9 12 14 17 21 26 30 32 31 25 17 14 20 26 28 26 22 20 21 22 22 22 22 22 22 21 21 21 20 19 18 17 16 15 14 14 14 14 14 14 14 14 14 14 13 13 12 12 12 11 11 11 11 11 11 11 11 11 11 12
35 34 34 33 32 31 30 29 27 26 25 25 25 26 27 27 25 24 23 23 22 20 18 17 15 12 10 12 13 15 18 23 28 32 33 25 16 14 20 25 28 27 22 19 17 18 19 21 22 22 22 22 21 21 20 19 18 17 16 15 14 14 14 14 14 14 14 14 14 14 14 13 13 12 12 12 11 11 11 10 10 10 11 11 11 12
33 33 33 32 32 30 29 28 26 25 25 24 25 26 28 28 28 27 26 25 23 21 19 18 16 14 11 10 9 9 12 20 27 32 32 24 17 15 20 24 27 27 24 17 11 8 12 18 22 23 22 22 21 21 20 19 18 17 17 16 15 15 15 15 15 15 15 15 15 15 14 14 13 13 12 12 12 11 11 10 10 11 11 11 10 10
33 32 32 32 31 30 28 26 25 24 23 23 24 26 27 28 28 28 26 26 25 24 21 18 17 16 14 10 6 4 6 18 27 32 33 26 19 17 21 23 26 28 27 20 10 3 4 11 18 22 23 22 21 21 20 20 19 19 18 18 17 17 16 16 15 15 15 15 15 15 15 14 14 13 13 12 12 11 11 11 11 11 11 11 10 9
34 33 32 32 31 29 27 26 25 24 23 23 24 26 27 28 29 28 28 27 27 26 23 20 19 18 19 15 10 7 8 18 27 32 34 27 21 19 22 23 25 27 28 25 16 8 3 5 11 18 22 22 22 21 21 20 20 19 19 19 19 19 19 17 16 16 15 15 16 16 16 15 14 14 13 13 12 11 11 11 11 11 11 11 10 9
33 33 32 31 30 29 27 26 25 24 23 23 24 26 28 29 29 29 29 29 28 28 26 23 21 20 20 20 17 13 12 18 25 32 34 29 22 19 21 23 24 25 27 26 20 12 5 5 7 12 18 22 22 21 21 20 20 20 20 20 21 21 20 19 18 16 16 16 16 16 16 16 15 14 14 13 13 12 11 11 11 11 11 10 10 9
30 30 30 29 28 28 27 26 25 25 24 24 25 26 28 29 29 30 29 29 29 29 28 27 24 22 21 19 17 15 13 16 22 29 33 32 25 21 23 24 24 25 25 24 19 12 5 6 7 8 11 18 21 21 20 20 20 20 20 20 21 21 21 20 19 17 16 16 17 18 17 17 16 15 15 14 14 13 12 11 10 10 10 10 10 9
26 26 26 26 26 26 26 26 26 26 25 25 26 27 28 29 30 30 30 29 29 29 29 28 28 27 25 22 19 17 15 17 21 26 31 34 30 25 25 25 25 26 24 23 19 13 6 8 10 10 9 14 17 19 20 20 20 20 20 20 20 20 20 20 20 19 18 18 19 19 19 19 18 17 16 15 15 14 13 12 11 10 9 9 9 9
23 23 23 23 23 24 24 25 25 26 26 27 27 27 28 29 30 30 30 29 29 29 29 28 28 28 27 26 24 23 22 21 21 23 28 33 33 29 25 25 27 27 24 22 20 16 11 11 12 12 12 11 12 15 18 19 20 19 19 19 19 19 20 20 20 20 20 20 21 21 21 20 19 18 17 16 15 14 13 12 12 11 10 9 9 9
22 21 22 22 22 22 23 23 24 25 27 27 28 28 28 29 30 30 30 29 29 29 29 29 28 27 27 26 25 25 25 23 21 22 25 30 33 32 27 26 28 29 27 24 21 19 15 12 11 12 12 11 10 12 16 19 20 19 19 19 19 19 20 20 21 21 22 22 23 23 22 21 20 19 17 16 15 14 13 13 12 12 11 10 10 9
21 21 21 22 22 22 22 23 23 25 26 27 28 28 29 29 30 30 30 29 29 29 29 28 28 27 26 25 24 23 23 22 21 21 22 25 30 33 30 28 29 30 30 27 25 23 19 14 10 9 9 10 10 13 17 20 21 21 20 19 19 19 20 21 22 22 23 23 23 23 23 22 20 19 17 16 15 15 14 14 14 13 12 12 11 11
21 21 21 21 22 23 23 23 23 24 25 26 27 28 29 29 29 29 29 29 28 28 27 27 27 26 25 24 23 22 21 20 20 20 20 22 26 30 31 29 29 30 30 29 27 25 22 18 14 11 10 10 11 13 17 20 22 22 21 20 19 20 20 22 22 23 23 23 24 23 23 22 21 19 18 17 16 15 15 14 14 14 13 13 13 13
21 21 21 22 23 24 24 23 23 24 24 26 27 28 28 28 28 28 28 27 26 26 26 26 25 25 24 23 22 21 19 18 18 19 19 21 24 27 30 29 29 29 29 28 26 25 23 20 18 17 16 14 13 14 16 20 23 23 22 19 18 19 21 22 23 23 23 23 23 23 23 22 21 19 18 17 16 15 14 14 13 13 13 13 13 14
21 21 21 22 22 23 23 23 23 23 24 26 26 27 27 27 26 26 25 24 24 23 23 23 23 23 22 21 20 19 18 18 18 18 19 20 23 26 28 29 29 28 29 28 26 25 24 21 19 18 17 17 16 16 17 20 23 24 22 19 19 20 22 23 23 23 23 23 23 23 22 21 20 19 18 17 16 14 13 13 12 12 12 13 13 14
22 21 21 21 21 21 22 22 22 23 25 25 25 25 25 26 25 24 23 22 21 21 21 21 21 20 19 19 18 18 18 18 18 19 19 20 23 25 27 28 27 27 27 27 26 24 23 22 20 19 19 18 17 15 16 19 23 24 23 21 20 20 20 23 24 24 23 23 23 22 22 21 20 19 17 16 15 14 13 13 12 13 13 13 13 13
22 22 21 20 20 21 22 22 22 23 24 24 25 25 25 25 25 24 23 22 21 21 21 21 21 20 18 18 18 18 18 18 18 19 19 21 23 25 27 27 26 26 25 25 24 23 23 22 20 20 20 20 18 17 16 18 21 23 23 22 21 17 12 19 24 25 24 24 23 22 21 20 19 18 16 15 15 14 14 14 14 14 14 14 14 14
21 21 21 20 21 21 22 22 23 23 24 24 24 24 24 24 24 23 23 22 22 21 21 21 20 19 17 17 17 18 19 19 19 19 20 21 22 24 26 26 25 24 23 24 24 23 22 20 20 20 20 20 19 18 18 19 20 23 24 24 23 21 18 19 23 26 25 24 24 22 21 20 18 17 16 16 15 15 15 15 15 15 15 14 14 14
21 21 21 21 22 22 22 23 23 23 23 23 23 23 24 24 23 22 22 22 21 21 21 21 20 17 15 15 16 17 18 19 19 20 20 21 21 22 24 24 23 22 21 22 23 23 22 21 20 20 19 19 19 18 18 19 21 22 23 25 25 24 22 18 19 23 25 25 24 23 22 20 18 17 17 17 17 16 16 16 16 15 15 14 14 14
21 22 22 23 23 23 23 23 23 23 22 22 22 23 23 24 23 22 22 22 22 22 22 21 19 17 15 15 16 17 17 17 18 19 20 20 20 20 21 21 21 20 19 20 21 22 23 23 23 22 20 19 18 18 19 20 21 22 23 24 24 24 22 17 16 18 22 23 24 23 21 19 18 18 17 17 17 16 16 16 15 15 15 14 13 13
22 23 23 24 24 23 23 22 22 22 21 21 21 22 23 24 24 23 21 22 22 22 22 21 19 18 17 17 17 17 17 17 17 18 19 19 18 18 18 18 18 18 18 18 19 19 20 21 22 22 21 20 19 18 19 20 21 22 23 23 23 23 21 18 15 14 15 18 19 20 19 18 18 18 17 16 15 15 15 15 15 14 14 13 13 12
23 24 24 24 23 22 21 22 22 21 21 20 21 22 23 24 24 23 21 21 22 22 21 19 18 17 17 18 18 19 18 18 18 19 19 19 19 18 18 18 18 18 18 18 18 18 18 18 19 20 21 20 19 19 20 20 20 21 22 22 22 22 22 19 15 13 12 13 14 15 16 17 17 16 15 14 14 14 14 14 13 13 13 12 12 12
24 24 24 24 23 22 21 22 22 22 21 20 20 21 22 24 24 23 22 22 22 21 20 18 17 16 16 16 18 19 18 18 19 19 20 21 21 21 20 20 20 20 19 19 18 18 18 18 19 19 19 19 19 20 21 21 20 19 19 20 21 21 21 19 16 14 13 12 12 13 14 14 14 13 12 12 13 13 12 12 12 12 12 11 11 11
24 24 24 24 23 22 22 23 23 22 21 21 20 21 22 23 23 23 22 22 22 21 20 19 18 17 16 17 17 18 18 17 18 19 20 22 23 23 22 22 21 20 19 17 16 16 16 16 17 18 19 18 17 18 20 21 20 18 18 19 19 19 19 18 17 15 14 13 13 13 13 12 11 11 10 11 11 11 11 11 11 11 11 11 11 11
23 24 24 24 24 23 23 24 23 23 22 21 21 21 22 21 21 21 21 21 21 21 20 20 19 18 17 18 18 18 18 19 18 19 20 22 23 24 23 23 23 21 18 15 13 13 12 11 10 13 17 18 18 17 17 20 21 20 19 19 19 18 18 17 16 15 14 14 13 13 13 12 12 11 11 11 11 11 11 10 10 9 10 10 11 11
Wind_Direction
251 254 256 256 255 254 253 251 249 247 246 248 251 254 259 264 267 267 266 264 261 257 254 250 247 244 240 237 235 236 238 238 237 234 231 227 222 218 216 217 219 224 230 235 237 238 238 240 242 244 242 238 234 231 230 229 228 227 222 216 210 207 210 212 206 197 192 193 195 196 196 196 196 196 196 196 198 201 206 211 216 219 221 219 213 206
253 253 253 253 252 251 250 250 249 248 248 251 255 258 261 262 263 263 263 260 258 255 252 250 247 244 241 238 237 238 240 239 235 231 227 224 220 218 217 219 223 228 233 235 236 235 236 239 244 246 245 240 234 229 225 222 219 215 210 206 205 209 214 212 204 195 190 190 191 192 194 195 197 198 199 199 201 205 210 215 219 222 222 219 213 206
257 254 252 251 250 249 249 250 251 251 253 255 258 260 261 261 260 258 257 256 253 251 249 247 247 245 243 240 239 239 238 233 227 222 219 217 216 216 217 221 225 230 233 234 233 233 234 238 244 248 247 240 231 223 217 214 211 209 205 203 202 203 202 199 193 187 183 185 187 189 191 194 196 197 199 199 201 205 210 215 218 219 218 215 209 204
260 258 255 253 252 252 252 253 255 255 256 257 258 259 259 259 257 255 254 252 249 246 244 244 244 244 243 241 240 239 236 227 219 213 211 209 210 212 215 219 225 229 230 230 229 229 231 236 243 248 246 237 225 215 208 206 206 205 203 200 197 194 190 185 182 180 180 183 186 189 191 195 196 198 200 202 205 208 213 216 217 217 215 212 207 203
259 259 259 258 258 257 258 258 258 257 257 256 256 256 255 254 253 252 252 250 247 243 241 240 241 242 242 240 240 239 236 226 217 211 209 208 208 210 212 216 220 223 225 224 223 224 227 233 240 244 240 228 216 207 202 200 200 200 199 197 194 189 184 180 179 179 181 184 186 189 193 197 199 201 203 206 209 212 215 217 218 217 216 214 210 207
260 260 261 261 260 260 260 258 257 255 253 252 251 251 250 249 248 248 248 247 245 243 241 240 239 240 240 240 240 239 236 229 221 216 213 212 212 213 214 215 216 218 219 218 219 220 222 227 233 235 227 215 206 202 200 199 198 197 196 195 192 188 183 181 180 181 182 184 187 190 195 200 203 206 208 210 212 214 216 217 219 219 219 219 218 215
261 260 260 259 258 257 255 253 252 251 247 246 245 246 246 246 246 245 245 246 246 246 245 243 241 240 240 239 239 238 234 227 222 218 217 216 216 217 217 217 216 216 215 215 216 216 217 219 222 222 214 206 201 200 199 199 197 196 194 193 192 190 187 184 184 184 185 187 190 194 199 204 209 212 215 217 219 221 221 222 222 224 225 226 227 226
260 259 256 252 250 249 248 248 247 247 245 242 240 241 242 244 244 245 246 248 248 248 248 246 244 241 240 239 237 233 226 219 215 213 213 214 216 217 218 218 217 216 215 215 214 214 213 215 216 214 209 202 199 198 198 198 197 196 194 194 193 193 191 190 190 191 192 193 196 200 205 210 215 219 222 225 227 228 229 230 230 231 233 236 238 238
256 256 252 247 242 239 241 243 246 247 245 242 239 238 238 239 241 243 245 246 247 248 246 244 243 242 240 237 233 226 218 213 210 209 209 210 212 214 216 216 216 216 215 214 212 211 211 214 215 213 208 202 198 197 197 198 198 197 197 196 197 197 197 197 198 199 200 202 205 208 212 216 221 226 229 231 233 234 235 236 237 239 240 243 246 248
252 252 250 247 244 241 238 239 242 245 245 242 240 240 238 236 235 236 238 241 243 245 243 240 239 238 236 232 225 217 210 208 207 208 210 210 211 213 213 214 213 213 213 211 210 210 210 212 213 211 206 202 199 198 197 198 199 200 200 200 201 203 204 205 207 208 211 213 215 218 222 226 230 234 238 240 241 242 242 243 244 245 246 247 248 248
252 250 248 246 245 243 239 236 237 239 241 238 236 236 236 235 232 229 228 233 237 238 237 235 233 230 226 219 213 207 203 201 201 204 207 210 211 212 212 213 212 211 209 208 209 209 208 209 210 208 204 200 199 199 199 200 201 201 202 204 206 209 212 215 218 221 223 226 229 232 235 238 241 244 247 249 250 250 250 250 250 250 250 249 247 245
252 250 247 245 243 239 235 233 234 235 233 228 226 228 231 232 232 229 225 228 230 230 228 227 226 223 216 208 201 197 197 196 196 198 201 204 207 208 209 209 208 205 201 199 201 204 205 205 206 204 201 199 200 201 203 203 203 204 206 208 211 215 219 223 227 231 235 238 241 244 246 248 250 252 253 255 255 255 255 254 253 253 251 249 244 239
251 249 246 244 241 236 231 228 228 227 222 218 218 222 228 230 230 229 228 230 231 228 224 219 217 215 210 203 196 192 193 194 195 197 198 200 203 205 205 204 201 197 192 192 194 197 198 200 201 201 199 199 201 204 206 206 207 208 210 213 216 220 224 229 233 238 241 245 247 249 251 252 253 254 255 255 255 255 255 254 253 251 249 244 237 230
250 247 244 240 238 235 229 224 223 222 219 220 223 227 230 231 230 227 226 227 230 229 223 215 210 207 205 200 195 192 191 192 194 196 197 200 202 204 203 201 198 194 190 191 192 194 195 197 198 200 200 201 203 205 207 209 210 212 215 218 222 226 230 234 238 242 245 247 249 250 251 252 252 252 252 251 250 250 249 249 248 246 241 233 225 219
247 244 241 239 238 235 230 226 225 226 227 229 230 231 231 231 228 224 219 219 222 221 215 209 207 205 202 198 195 192 191 192 192 193 194 198 202 204 203 199 196 193 192 192 193 194 197 199 201 202 203 204 205 207 209 210 212 215 219 224 228 233 236 239 241 243 245 247 248 249 250 249 248 247 245 243 241 240 240 240 239 236 228 218 210 206
244 241 239 239 239 238 234 228 226 228 232 234 233 231 227 225 223 220 215 213 211 206 198 197 201 205 207 204 199 194 192 192 192 192 193 194 198 201 201 198 195 193 193 194 195 197 200 202 204 206 206 207 208 210 210 212 214 217 221 227 231 236 239 240 242 244 245 246 245 245 245 244 243 240 236 232 228 227 227 228 228 224 215 205 199 196
242 240 239 240 240 239 235 231 229 231 233 234 233 230 226 223 221 218 212 209 203 197 193 191 191 200 210 209 205 199 195 193 194 195 195 194 195 198 199 199 197 195 195 197 199 201 202 204 206 208 210 211 211 212 213 214 216 219 223 227 232 236 239 241 242 244 244 242 239 237 236 237 237 235 229 222 217 215 215 217 217 213 206 198 194 191
240 238 238 239 241 240 234 230 231 233 233 232 232 230 228 225 222 218 212 206 201 198 198 198 198 197 196 204 207 205 198 195 194 195 196 196 197 197 198 200 201 201 199 200 202 205 206 207 208 210 211 213 214 215 216 217 218 220 223 227 231 235 238 241 244 245 243 237 231 227 228 230 232 230 223 215 209 207 207 208 207 204 200 195 192 190
240 237 236 239 242 242 237 231 230 229 229 228 229 228 225 223 221 217 211 208 206 204 203 204 205 206 204 203 206 205 200 197 195 195 196 199 199 198 197 200 203 204 203 203 205 207 208 210 211 212 213 214 216 217 219 219 219 220 223 226 230 235 240 244 247 247 242 230 223 220 221 225 228 227 220 211 205 203 202 201 200 199 196 195 193 192
241 239 239 239 241 242 239 234 231 229 229 230 229 226 222 220 218 214 212 211 210 209 208 208 210 211 210 207 205 204 202 198 195 195 197 200 201 199 198 199 202 204 205 205 206 207 208 209 211 212 213 215 217 218 219 220 219 220 222 226 231 236 241 246 249 247 238 223 216 215 218 222 225 224 218 209 204 202 200 198 196 195 194 195 195 193
241 240 239 237 238 240 240 238 237 237 236 233 228 223 220 218 216 214 214 212 212 211 211 212 214 214 212 209 206 204 203 197 194 193 198 201 202 201 199 199 201 204 205 206 206 206 206 208 209 211 213 214 215 216 216 217 218 219 221 225 230 236 242 247 249 245 231 218 212 213 215 218 221 221 217 209 204 201 198 196 194 193 193 195 196 194
240 241 241 239 238 238 241 243 243 242 239 233 226 220 219 217 215 213 214 212 211 211 213 216 218 216 212 211 209 207 205 200 196 194 196 198 203 204 201 199 200 203 205 205 205 204 205 206 208 210 212 212 211 210 211 214 217 219 221 225 230 235 240 245 246 240 225 214 210 211 214 216 218 218 215 209 204 200 197 195 194 194 195 196 196 195
240 242 244 243 242 242 244 245 246 244 240 234 229 226 225 222 218 216 215 214 213 213 213 215 215 214 211 210 210 209 207 204 200 196 194 196 204 206 202 199 199 202 205 205 204 203 203 204 206 208 210 210 208 207 209 213 217 220 223 226 230 235 238 241 241 234 221 213 209 209 211 212 214 213 211 207 203 200 197 196 196 196 196 198 197 197
241 244 246 247 247 247 247 246 245 243 240 237 236 236 235 231 228 226 224 221 217 214 213 213 212 211 209 208 207 206 206 204 201 198 196 201 206 205 202 199 199 200 204 205 204 202 202 203 205 206 207 207 207 207 210 214 218 222 225 229 232 235 237 238 235 227 216 211 208 208 209 210 210 209 208 205 202 200 198 197 197 197 197 198 198 197
242 244 247 249 250 251 250 247 245 242 241 240 239 238 236 233 230 228 225 221 216 212 210 207 204 202 204 203 201 201 204 203 201 198 197 203 205 203 202 200 198 199 202 204 203 201 201 202 204 205 205 206 207 209 213 217 221 225 228 232 234 235 235 234 229 221 213 209 208 208 209 209 208 207 206 204 202 200 198 198 197 197 196 196 196 196
245 247 249 252 253 253 251 248 245 243 242 241 240 237 232 227 223 219 215 211 207 203 197 194 196 200 200 196 195 197 200 201 201 200 199 199 197 196 200 200 199 198 199 202 201 200 200 202 204 205 206 206 208 212 215 219 224 227 231 234 235 234 232 229 223 216 211 208 207 207 208 207 207 206 205 204 202 200 198 198 198 197 196 195 195 195
248 250 251 252 253 253 251 249 245 243 242 242 240 236 229 220 212 206 202 201 199 194 190 196 203 205 200 197 198 199 199 197 198 200 201 199 193 191 196 198 197 196 197 198 198 198 200 203 205 206 208 209 212 215 218 222 226 229 233 234 234 231 228 223 217 212 209 207 206 206 207 206 205 205 204 203 202 200 199 200 200 200 199 199 199 199
248 249 250 250 251 251 251 249 246 243 242 241 239 234 226 214 204 198 199 200 197 193 194 201 204 202 200 202 202 200 198 196 197 199 200 199 195 192 195 195 195 194 193 192 195 198 200 204 208 209 210 212 215 217 220 223 226 230 232 232 230 226 222 217 213 210 208 207 206 206 206 205 204 204 204 203 202 201 200 201 202 203 203 205 208 208
245 245 246 247 248 249 249 248 246 243 241 239 236 231 224 216 208 205 206 203 197 194 200 206 207 204 199 196 195 195 197 198 198 199 199 197 196 195 195 191 191 192 189 184 187 196 202 207 210 211 213 214 217 219 222 223 225 227 227 227 224 220 216 212 210 208 207 207 206 206 205 205 204 204 204 204 204 203 202 201 202 203 206 211 215 216
238 239 241 242 244 246 246 246 244 241 239 236 232 228 223 219 216 214 212 206 198 196 202 207 207 200 186 174 174 188 201 204 202 199 198 195 193 193 191 187 188 190 187 177 172 191 211 214 214 213 213 215 217 220 222 222 223 222 221 218 216 213 211 209 208 207 207 207 207 207 206 205 204 204 204 205 205 204 203 202 202 205 208 213 218 221
233 234 236 238 241 243 243 242 241 238 235 231 227 224 221 219 218 216 214 208 203 200 203 206 204 195 180 166 160 186 209 208 204 200 198 195 194 192 187 182 185 189 189 182 172 167 216 218 217 216 214 215 217 219 221 221 221 220 218 214 210 207 207 206 206 207 207 207 207 208 207 206 205 204 203 203 203 203 202 202 204 208 212 215 220 223
231 232 234 236 238 239 239 238 236 234 230 226 222 220 218 217 216 215 214 212 210 207 205 205 203 197 191 191 194 201 204 204 203 200 198 195 194 193 189 184 183 186 190 188 185 175 167 201 208 209 212 213 215 217 218 218 218 218 217 213 209 207 205 204 204 205 207 206 207 207 206 204 203 202 201 200 199 199 199 200 205 211 216 218 220 221
229 230 232 234 235 235 234 233 231 229 226 221 218 216 217 217 216 216 216 217 216 213 209 206 203 200 199 201 205 207 204 203 202 201 198 195 192 188 187 184 182 183 186 190 190 187 176 170 180 193 203 207 210 213 213 214 214 215 215 213 210 208 206 204 202 203 205 206 206 205 204 202 201 200 199 198 197 196 196 197 204 212 219 222 222 219
227 228 229 230 231 231 230 229 228 226 224 220 217 216 216 216 217 217 218 220 220 219 216 212 208 203 200 202 207 209 206 205 205 203 199 196 193 188 185 182 181 182 183 187 191 193 185 169 162 169 189 200 204 207 208 208 209 211 213 212 212 211 209 205 202 201 203 204 204 202 199 198 198 198 199 200 200 198 196 196 200 209 218 224 226 221
223 224 225 226 227 227 227 227 226 225 224 221 218 216 216 217 217 218 219 221 223 224 223 221 218 214 208 205 204 205 204 206 207 204 201 199 197 192 186 184 184 183 182 186 190 190 177 171 169 166 168 186 197 202 203 204 205 207 209 211 212 212 210 206 202 200 202 203 202 198 196 196 196 199 202 204 205 204 202 200 201 205 213 221 228 228
219 221 222 223 223 223 224 224 224 223 223 221 219 218 217 217 218 219 221 223 224 225 225 224 224 224 222 219 215 211 210 211 210 206 204 203 202 197 189 188 189 188 185 186 190 190 180 170 170 171 166 169 184 198 201 201 202 204 206 208 210 210 209 206 202 201 201 202 201 199 198 199 201 204 208 210 211 212 211 211 209 209 210 216 224 231
217 218 219 219 219 219 220 221 221 220 220 220 219 218 217 216 217 219 221 222 224 224 224 224 224 225 227 228 228 226 224 221 217 212 209 208 207 203 196 194 194 193 190 188 188 189 183 170 165 168 169 169 176 188 195 197 198 201 203 205 206 205 204 203 202 202 203 203 203 202 203 206 208 211 214 216 217 218 218 219 218 216 215 215 220 225
215 217 218 217 217 216 217 217 218 218 217 216 216 215 215 215 215 217 219 220 222 222 222 222 223 223 225 228 230 233 233 230 225 220 216 214 211 208 203 199 198 198 197 195 191 188 183 175 169 171 179 185 186 186 188 191 194 197 200 201 201 202 202 201 202 203 205 206 206 207 209 211 214 217 219 222 223 223 223 223 222 221 217 215 215 218
214 216 216 216 215 215 215 215 215 215 214 213 212 212 212 212 213 214 215 217 218 219 220 221 221 222 223 225 227 229 232 232 231 228 225 220 215 211 208 203 201 200 201 200 197 192 189 187 186 185 184 185 188 189 189 190 191 193 194 195 198 201 202 202 203 205 207 208 208 209 211 215 218 220 223 225 226 227 226 226 225 224 221 217 215 215
213 215 216 215 215 215 214 214 213 211 209 208 208 209 209 208 208 209 211 212 214 215 217 218 218 219 221 221 222 224 225 227 228 228 226 222 217 213 210 208 205 203 201 200 198 197 194 194 195 194 188 184 183 184 185 189 191 191 188 188 194 199 202 203 204 206 209 210 211 212 214 217 220 223 225 227 229 229 229 228 227 227 225 223 220 218
214 216 216 216 215 215 213 212 210 207 205 205 204 204 203 203 202 202 203 205 207 208 211 212 213 214 215 216 216 216 216 216 217 219 220 219 216 213 211 210 209 206 201 198 198 199 199 198 198 196 193 189 185 183 184 188 190 189 186 187 191 196 198 201 204 207 210 212 214 216 217 220 222 225 227 229 231 233 234 233 232 231 230 229 228 226
213 215 215 214 211 209 208 206 204 203 203 202 200 199 198 198 196 194 194 194 195 198 202 202 202 202 201 203 205 207 206 206 208 210 212 213 212 211 210 210 210 209 203 199 198 199 201 201 200 197 195 191 186 181 183 188 190 190 190 190 191 192 195 201 205 207 209 212 214 217 219 221 223 226 228 231 235 239 241 242 241 239 237 235 234 233
213 214 213 209 205 202 201 200 199 199 199 198 197 197 197 196 194 192 190 188 187 189 192 194 195 192 187 185 188 193 196 199 201 203 205 207 209 209 209 210 211 210 206 199 196 197 201 203 203 202 200 197 190 182 180 183 187 190 192 193 189 185 188 199 203 206 209 211 214 216 218 220 223 226 230 234 239 243 246 247 246 244 243 241 239 237
209 209 207 203 199 197 196 195 195 195 194 193 193 194 195 194 193 191 188 187 186 186 186 188 189 186 179 174 175 179 185 191 195 197 199 202 205 208 210 211 213 213 211 203 198 195 197 199 202 204 204 200 195 188 184 183 185 189 192 194 194 192 192 198 201 203 206 210 213 215 217 220 223 227 232 236 240 242 244 245 246 245 244 242 241 239
203 200 197 195 193 191 190 190 192 192 192 192 192 192 193 192 192 190 188 186 185 184 184 184 182 176 170 170 170 171 176 182 188 192 195 198 201 205 209 211 213 214 214 211 206 201 196 194 196 199 201 200 197 193 189 186 186 188 192 196 199 201 204 206 206 205 206 208 211 214 218 221 224 227 231 235 237 239 240 241 242 243 243 243 241 239
195 191 189 188 187 186 187 188 189 188 188 190 191 192 193 192 191 190 190 188 186 184 184 184 181 175 172 171 169 168 168 173 180 186 192 195 198 201 205 209 212 213 213 212 212 210 206 200 196 194 192 192 195 198 198 193 189 188 191 196 199 203 206 209 211 210 209 210 212 214 217 220 223 226 228 232 234 235 237 239 240 241 241 241 240 238
189 186 185 184 184 184 185 186 185 184 185 187 190 192 193 192 191 190 190 190 188 186 184 184 184 184 180 175 172 169 167 167 171 178 184 188 191 194 197 200 203 205 205 205 205 207 208 206 202 196 189 185 186 191 198 200 196 192 191 193 196 199 202 205 207 207 208 210 211 211 212 214 217 221 225 229 232 234 236 237 238 239 239 239 237 236
188 185 184 182 181 180 180 181 182 182 184 186 189 192 193 193 191 189 188 190 189 186 183 183 185 186 182 179 177 175 172 169 168 171 175 179 182 185 186 188 189 191 193 194 194 194 195 197 197 197 194 190 186 187 191 197 198 197 194 192 193 196 200 201 200 198 196 199 202 203 205 208 211 215 220 225 230 234 236 236 236 236 236 236 234 233
188 185 183 181 179 178 178 180 181 183 184 185 187 188 191 192 191 189 188 188 188 186 185 186 186 184 180 179 179 178 175 172 170 169 171 173 176 177 178 180 180 181 181 183 185 187 187 188 189 192 195 197 195 191 190 193 196 197 195 193 193 194 197 197 196 194 192 191 191 194 199 205 210 214 219 224 230 235 237 236 234 233 233 233 233 231
188 185 183 181 179 178 179 181 182 183 185 185 185 185 187 188 189 190 190 189 188 187 188 188 187 183 180 179 178 176 174 171 170 169 170 172 173 173 174 174 174 172 170 171 175 179 182 185 190 193 196 200 201 199 194 190 190 192 194 194 195 195 196 196 195 196 196 193 192 193 198 204 209 215 220 226 231 237 240 239 235 231 229 230 231 229
185 184 183 181 180 180 181 182 183 184 185 185 184 183 183 184 185 187 188 188 188 189 191 191 190 186 183 180 178 177 176 173 171 171 172 173 173 173 172 172 170 166 162 161 163 168 171 178 190 201 204 203 204 204 201 192 188 187 190 194 196 197 197 197 197 197 198 198 198 198 201 205 209 214 219 223 229 235 242 243 238 229 225 226 227 225